Dewpoint
34 29 27 28 28 27 26 25 23 21 19 29 27 23 29 40 45 48 43 41 45 52 53 53 53 55 55 54 55 58 57 57 56 56 55 53 52 53 52 50 50 50 49 48
30 27 30 30 27 27 26 25 23 22 20 25 26 22 24 37 41 44 41 40 42 44 46 50 51 52 53 53 57 58 57 57 56 56 56 53 52 52 51 50 50 47 46 44
27 27 31 29 26 24 25 25 22 24 21 14 20 21 22 25 37 40 41 41 40 41 44 46 51 53 52 57 58 58 57 57 57 57 56 53 51 50 48 47 46 45 44 43
29 31 30 29 27 26 23 25 22 22 18 9 21 17 26 27 27 38 40 42 42 42 43 49 52 54 55 57 59 58 58 57 57 57 56 51 49 47 46 46 44 43 42 41
23 29 28 27 27 28 26 27 25 24 23 22 21 17 20 29 25 32 36 41 43 44 46 53 54 55 56 58 58 58 58 57 57 57 56 51 48 47 46 46 43 42 41 38
25 31 29 28 29 29 30 26 27 30 27 20 25 22 20 26 23 25 28 36 42 47 48 55 57 57 57 58 58 58 58 58 57 58 56 51 48 46 46 44 42 42 36 34
27 28 30 32 27 28 27 25 20 18 19 18 28 24 23 24 28 28 27 37 41 49 51 56 57 57 58 58 58 58 58 57 58 56 55 49 46 45 45 42 40 36 33 31
22 21 27 31 29 28 28 23 20 15 16 19 29 22 22 27 28 32 35 37 47 50 53 54 56 57 57 57 57 58 58 56 53 50 49 45 41 40 38 37 34 34 31 30
25 26 33 32 33 31 25 23 26 27 32 26 25 21 24 30 31 35 38 39 46 49 53 54 55 55 57 57 57 57 54 49 43 40 40 39 38 37 36 35 35 33 32 31
27 23 31 32 30 29 28 25 20 24 17 18 16 19 22 27 29 35 35 38 44 48 53 54 54 55 55 55 55 53 49 45 40 37 37 36 35 35 34 33 32 29 30 31
32 25 27 32 29 24 22 20 21 22 21 16 18 15 18 27 34 34 36 38 44 47 51 53 54 54 53 52 51 48 46 43 39 37 36 35 31 31 32 31 32 31 30 30
32 31 26 23 29 30 27 23 24 18 16 24 21 19 24 25 31 38 39 42 45 46 48 51 52 53 51 50 48 46 45 43 39 37 35 32 32 34 32 31 33 31 32 33
31 29 23 23 24 28 26 22 24 27 25 19 18 18 22 20 21 31 40 42 45 44 44 45 47 50 50 49 48 47 44 43 39 38 35 32 31 30 30 32 33 34 33 32
30 25 22 20 18 23 24 25 24 22 20 21 22 21 22 21 20 19 26 31 42 45 42 42 42 46 48 48 48 47 44 41 38 36 33 32 31 31 32 35 34 31 31 31
28 23 23 21 23 28 25 24 25 23 22 18 17 21 20 20 20 21 23 25 33 42 42 41 41 41 44 45 46 46 42 41 39 36 34 36 35 35 36 33 31 31 31 30
31 22 26 22 27 24 24 23 23 24 23 24 23 22 23 23 25 25 25 26 28 29 30 34 39 41 42 44 45 45 42 40 37 36 37 37 36 34 32 31 29 29 29 28
29 28 26 22 24 21 20 21 22 22 24 23 19 21 22 21 22 23 27 28 28 28 30 32 34 43 44 45 46 44 41 39 38 38 37 37 34 34 32 30 29 29 29 30
31 31 28 24 22 19 22 23 22 20 21 22 22 23 28 29 31 30 30 30 30 30 31 34 37 39 43 46 43 41 40 40 39 36 35 35 31 30 31 30 30 32 32 29
36 32 29 24 21 23 22 19 18 17 22 24 24 25 27 32 34 34 34 34 34 34 35 36 36 36 37 39 40 39 36 32 30 30 30 31 31 31 31 32 33 32 30 30
35 33 29 30 21 19 20 22 23 24 22 28 28 28 28 28 27 32 36 34 31 31 32 32 32 32 32 32 31 31 31 30 31 31 32 32 33 35 34 33 32 31 31 27
29 30 28 26 22 17 25 25 25 11 15 29 30 30 30 30 32 35 33 30 31 32 33 33 32 32 32 32 31 30 31 31 33 35 36 37 37 36 34 31 30 28 27 28
25 28 28 29 22 21 31 24 21 25 32 32 34 35 36 39 38 34 29 30 32 32 32 32 32 32 32 31 31 31 32 33 34 35 36 35 32 31 30 30 30 28 28 27
26 25 25 29 26 31 29 29 33 34 35 38 39 40 40 37 29 28 29 31 33 32 31 31 31 31 32 32 31 31 31 33 34 32 31 30 31 31 31 29 28 26 26 26
32 37 32 32 35 37 38 39 39 40 37 35 37 37 33 30 31 33 33 33 33 33 32 32 31 30 29 29 31 31 31 31 31 30 30 30 30 29 29 28 28 28 28 26
32 33 31 35 38 38 37 37 36 35 34 33 33 33 33 33 32 33 33 33 33 32 32 31 29 28 27 28 29 30 30 30 29 29 29 29 27 28 28 28 28 28 28 27
33 31 29 29 37 35 37 37 36 35 34 33 32 32 33 32 32 31 31 31 31 30 30 29 29 29 29 29 28 28 28 28 28 27 27 26 26 26 26 27 27 28 28 28
Wind_Speed
0 4 5 6 5 7 2 7 16 16 6 11 17 15 17 20 19 22 19 22 23 27 24 28 27 26 25 20 21 23 22 19 20 15 15 11 9 8 8 9 10 10 13 13
2 5 2 8 0 2 12 14 17 15 16 16 15 15 17 24 24 25 25 23 26 24 24 25 27 26 27 25 22 22 23 21 17 15 12 7 10 7 10 10 9 10 14 16
5 6 1 5 2 6 10 13 8 11 13 3 9 2 8 10 14 19 21 30 27 30 30 27 29 29 25 22 24 24 23 21 17 17 13 9 9 9 6 9 10 11 14 13
6 3 4 3 6 4 17 21 16 15 5 1 3 4 4 9 12 22 22 23 24 23 27 26 29 27 29 25 22 20 19 19 17 17 13 19 16 15 10 13 12 14 14 12
5 6 4 2 7 7 17 9 10 11 2 1 3 3 7 7 11 19 24 23 21 26 29 27 31 32 27 24 24 21 20 18 17 19 16 19 18 14 12 13 18 14 8 15
2 3 4 6 7 7 5 10 3 3 3 4 4 1 6 8 23 18 21 23 26 21 18 16 18 22 23 20 20 20 19 20 17 18 17 21 23 20 19 18 18 12 13 12
2 6 2 2 7 6 1 1 6 2 1 6 5 6 11 16 22 20 25 14 22 25 22 22 24 23 22 23 20 19 21 20 19 19 19 20 21 21 24 22 17 17 13 9
7 3 3 2 4 5 10 5 5 3 5 5 5 6 6 15 20 16 5 15 14 20 20 25 24 22 24 23 22 19 19 17 17 16 17 16 18 15 14 15 14 13 14 14
6 3 5 7 5 4 6 4 5 7 2 2 3 6 6 8 2 2 6 13 18 20 20 22 20 21 21 20 22 22 18 16 17 16 18 18 16 15 14 12 9 10 12 11
9 6 7 6 4 8 12 4 2 2 3 3 4 4 5 3 7 4 7 10 18 18 18 18 20 21 20 21 21 19 19 22 21 20 21 20 17 15 15 14 13 13 11 12
11 6 3 2 7 14 3 4 3 4 5 4 3 3 5 11 11 14 17 18 21 24 26 25 24 23 24 22 22 22 24 25 24 24 23 23 20 18 17 14 12 10 10 10
13 7 7 17 9 3 5 13 8 6 6 2 3 7 5 12 16 16 17 18 20 25 27 28 28 27 25 26 25 26 27 28 28 26 24 23 21 18 15 11 9 11 4 9
14 5 5 1 10 5 8 10 7 6 4 10 8 6 3 4 6 16 23 20 22 23 20 19 19 25 27 27 27 27 28 26 22 22 23 22 20 18 15 12 11 4 6 7
15 7 11 20 9 3 4 7 5 6 7 8 11 9 11 15 11 10 10 14 22 22 22 22 19 22 23 26 26 19 17 21 24 24 26 27 24 21 15 12 6 4 6 8
5 7 7 7 4 2 6 7 6 4 6 10 16 15 17 6 5 3 8 4 5 8 7 9 12 15 18 17 15 15 16 19 20 19 14 10 10 12 13 13 7 9 7 5
2 6 4 6 3 2 4 7 6 6 4 9 9 6 2 8 11 15 12 14 14 11 9 8 7 18 19 19 19 18 17 15 17 16 15 13 12 12 13 11 9 5 8 7
10 9 6 8 3 3 9 13 13 11 6 6 6 8 4 13 10 8 13 17 16 14 14 14 10 5 15 20 21 22 20 18 18 18 15 16 17 15 13 11 10 9 5 4
11 9 4 4 2 8 8 5 7 16 9 14 19 13 16 19 14 17 11 13 12 10 11 11 10 8 2 6 13 19 19 18 17 15 12 12 16 17 15 14 8 1 4 8
8 8 5 6 9 6 9 5 8 7 4 6 14 11 12 13 14 10 6 13 12 12 11 12 14 16 17 17 20 23 20 21 21 18 17 16 19 18 11 6 8 10 10 8
10 6 8 5 5 9 8 5 7 11 9 8 13 10 8 6 5 2 5 13 14 14 13 16 17 21 22 17 20 25 20 21 20 19 21 19 14 6 7 9 9 9 8 9
5 3 12 8 7 8 14 8 4 10 7 11 12 11 8 6 3 4 17 17 15 16 16 16 20 22 18 18 22 24 21 21 16 14 10 7 4 4 6 6 5 7 9 12
14 12 7 4 4 13 9 7 8 9 7 14 13 11 14 13 15 19 17 17 16 17 17 17 20 19 16 16 21 19 17 12 10 7 6 3 1 3 5 8 9 10 8 7
8 11 10 13 9 4 3 6 13 17 18 9 15 13 17 15 15 16 17 17 15 16 15 13 16 16 13 13 11 14 9 7 6 4 2 1 4 7 7 9 10 8 10 10
4 8 7 8 5 11 14 15 13 13 20 15 13 14 18 20 15 17 17 15 15 12 13 11 14 16 15 12 12 10 7 4 3 1 4 6 7 9 7 7 8 10 12 13
7 15 10 6 7 17 11 12 16 20 19 21 19 18 18 22 17 17 16 14 13 13 13 13 14 13 10 8 6 3 1 0 5 5 7 9 9 10 11 12 13 14 14 13
8 14 16 9 21 10 9 10 13 19 17 16 22 21 18 19 19 18 17 14 14 14 11 12 10 10 8 7 7 7 5 4 7 10 11 12 13 15 15 16 18 16 20 21
Wind_Direction
27 64 305 293 224 233 225 329 325 295 249 198 196 191 193 185 194 196 182 168 165 174 175 180 177 175 175 175 166 161 156 155 149 149 146 144 162 163 157 175 166 149 138 120
75 99 69 269 198 328 357 328 290 286 293 192 214 206 197 186 202 197 182 177 168 170 168 174 172 174 175 174 176 167 168 165 163 161 154 154 162 175 170 172 165 139 126 128
193 193 165 285 263 318 318 285 276 298 309 119 137 12 205 193 197 198 195 184 179 171 170 171 174 175 173 171 176 178 176 172 169 166 162 124 113 118 143 163 158 151 146 146
261 262 181 13 291 301 288 274 263 278 307 147 13 179 219 189 188 202 199 192 188 183 179 169 172 171 176 175 178 179 173 174 180 178 170 164 169 165 179 172 158 158 159 157
252 190 136 54 262 243 269 317 278 284 45 84 296 167 206 196 209 192 206 206 202 186 179 170 176 179 179 168 171 171 176 185 191 193 184 175 175 176 171 168 166 169 136 134
252 268 193 206 261 231 291 324 27 65 67 245 15 103 284 237 219 216 206 190 192 197 184 166 164 164 178 178 169 177 183 198 200 194 191 186 186 179 172 175 177 162 145 132
209 237 95 103 346 340 229 325 317 347 280 230 311 173 247 252 250 227 239 164 180 180 171 157 162 170 174 183 175 187 192 199 204 198 199 189 183 175 177 176 171 157 146 145
192 250 250 109 100 312 306 189 193 234 246 275 274 231 244 288 265 225 209 153 157 173 170 167 169 173 177 181 184 189 196 196 194 193 189 166 157 157 153 157 155 152 157 150
163 215 311 218 151 89 325 226 184 114 36 322 245 281 296 331 45 121 160 134 161 173 172 170 177 180 175 179 184 184 179 173 164 158 147 145 139 142 148 138 138 142 139 141
199 188 231 300 272 254 201 213 116 354 219 243 273 274 236 179 243 268 238 210 170 179 178 174 178 180 184 184 183 176 169 165 162 152 147 148 148 142 143 143 145 148 143 142
152 184 245 276 193 224 188 218 182 180 157 218 233 241 238 210 207 199 205 197 183 177 181 182 184 186 186 183 177 172 168 166 168 164 160 156 153 149 154 157 151 159 147 166
182 147 183 203 223 300 265 251 173 204 221 167 184 255 242 229 213 203 212 210 201 187 184 185 184 182 184 186 179 175 178 179 178 171 164 159 154 159 159 156 151 154 206 234
171 165 172 225 288 299 230 217 194 142 121 221 220 254 294 302 221 209 217 211 208 205 194 186 181 187 190 191 190 188 184 183 170 160 162 161 164 163 168 162 155 183 263 223
157 154 185 201 202 210 231 241 216 178 199 199 218 241 258 280 277 235 223 221 215 207 203 201 197 198 199 199 200 190 173 170 167 169 169 174 170 170 167 156 147 132 166 159
148 184 177 188 203 241 265 251 197 205 238 209 242 222 249 248 113 222 226 170 102 203 206 228 230 216 207 200 198 183 172 172 172 171 165 150 155 145 134 118 112 116 150 146
97 218 180 217 77 82 238 267 271 228 226 239 263 271 330 108 96 79 73 91 92 84 69 51 234 209 202 195 190 180 172 158 154 146 134 139 128 92 90 99 94 81 23 23
171 159 164 229 333 346 264 240 240 252 235 207 226 156 101 87 82 79 94 91 87 73 63 56 52 204 197 192 184 179 158 136 135 135 135 139 133 126 124 123 72 54 35 23
161 145 151 193 109 249 242 293 145 103 68 117 114 117 118 111 99 87 89 88 73 68 59 50 53 63 55 143 106 106 114 117 118 118 120 118 113 97 78 75 81 73 260 292
163 137 140 180 204 294 292 174 169 137 120 118 122 120 136 131 91 66 82 82 95 94 76 71 67 71 78 93 109 111 108 101 98 94 86 82 86 88 102 139 227 249 269 289
79 98 182 158 196 224 248 201 126 120 163 168 127 118 106 140 115 175 14 111 92 83 75 83 76 76 76 76 96 97 94 94 93 97 98 97 97 111 201 229 265 280 260 282
134 85 195 179 217 272 248 221 111 189 197 152 131 130 128 102 124 82 108 85 79 78 72 68 74 79 77 85 89 86 88 89 100 102 109 104 164 233 271 281 277 291 284 295
178 169 182 124 203 255 199 151 193 156 133 130 120 121 105 106 90 98 91 87 77 75 69 69 77 77 81 88 96 105 108 132 140 132 115 143 220 273 278 279 290 299 299 294
181 183 183 186 214 272 8 136 126 135 131 125 116 119 117 110 96 98 92 84 81 83 84 82 90 86 65 59 73 97 80 76 86 89 119 227 278 282 290 297 294 297 300 291
218 160 163 158 33 105 94 84 96 110 115 105 103 112 115 113 101 96 92 94 94 84 79 80 83 81 78 75 85 102 117 106 95 355 306 302 304 308 299 286 287 284 283 293
182 163 151 92 115 94 71 89 111 101 96 91 80 86 100 106 98 102 96 89 84 80 80 85 92 96 96 91 84 85 71 159 330 315 309 305 297 291 292 287 279 280 274 264
180 172 178 189 184 143 151 123 119 107 103 101 102 89 80 96 100 98 94 97 99 97 92 89 83 77 61 36 18 3 353 320 311 306 296 287 287 290 288 285 287 278 266 259